FW8343 Weather Reports


time (UTC)temp
F
wind
direction
speed
knots
gust
knots
rain 1hr
in
rain 24hr
in
rain mn
in
humidity
%
barometer
mb
20260508091011 30 0 0.0 0.0 0.00 0.00 0.00 95 1008.4
20260508090511 30 0 0.0 0.0 0.00 0.00 0.00 95 1008.4
20260508090038 30 0 0.0 0.0 0.00 0.00 0.00 95 1008.5
20260508085510 30 0 0.0 0.0 0.00 0.00 0.00 95 1008.5
20260508085011 30 0 0.0 0.0 0.00 0.00 0.00 95 1008.5
20260508084530 30 0 0.0 0.0 0.00 0.00 0.00 95 1008.5
20260508084012 30 0 0.0 0.0 0.00 0.00 0.00 95 1008.5
20260508083512 31 0 0.0 0.0 0.00 0.00 0.00 95 1008.4
20260508083029 31 0 0.0 0.0 0.00 0.00 0.00 95 1008.4
20260508082511 31 0 0.0 0.0 0.00 0.00 0.00 95 1008.5
20260508082011 31 0 0.0 0.0 0.00 0.00 0.00 96 1008.5
20260508081531 30 0 0.0 0.0 0.00 0.00 0.00 95 1008.4
20260508081009 30 0 0.0 0.0 0.00 0.00 0.00 94 1008.4
20260508080510 30 0 0.0 0.0 0.00 0.00 0.00 93 1008.6
20260508080034 31 0 0.0 0.0 0.00 0.00 0.00 94 1008.6
20260508075512 31 0 0.0 0.0 0.00 0.00 0.00 94 1008.6
20260508075013 31 0 0.0 0.0 0.00 0.00 0.00 94 1008.6
20260508074536 31 0 0.0 0.0 0.00 0.00 0.00 94 1008.7
20260508074011 31 0 0.0 0.0 0.00 0.00 0.00 94 1008.7
20260508073513 32 0 0.0 0.0 0.00 0.00 0.00 94 1008.8
20260508073032 32 0 0.0 0.0 0.00 0.00 0.00 95 1008.8
20260508072510 32 0 0.0 0.0 0.00 0.00 0.00 95 1008.8
20260508072014 32 0 0.0 0.0 0.00 0.00 0.00 95 1008.9
20260508071532 31 0 0.0 0.0 0.00 0.00 0.00 94 1008.9
20260508071013 31 0 0.0 0.0 0.00 0.00 0.00 93 1009.0
20260508070517 32 0 0.0 0.0 0.00 0.00 0.00 93 1009.0
20260508070033 32 0 0.0 0.0 0.00 0.00 0.00 94 1009.1
20260508065510 31 0 0.0 0.0 0.00 0.00 0.00 93 1009.1
20260508065015 31 0 0.0 0.0 0.00 0.00 0.00 93 1009.0
20260508064530 31 0 0.0 0.0 0.00 0.00 0.00 92 1009.1
20260508064011 31 0 0.0 0.0 0.00 0.00 0.00 93 1009.2
20260508063514 31 0 0.0 0.0 0.00 0.00 0.00 92 1009.1
20260508063029 31 0 0.0 0.0 0.00 0.00 0.00 92 1009.2
20260508062513 31 0 0.0 0.0 0.00 0.00 0.00 91 1009.2
20260508062016 31 0 0.0 0.0 0.00 0.00 0.00 91 1009.2
20260508061532 31 0 0.0 0.0 0.00 0.00 0.00 91 1009.2
20260508061012 31 0 0.0 0.0 0.00 0.00 0.00 92 1009.2
20260508060515 31 0 0.0 0.0 0.00 0.00 0.00 90 1009.2
20260508060031 31 0 0.0 0.0 0.00 0.00 0.00 90 1009.2
20260508055508 31 0 0.0 0.0 0.00 0.00 0.00 89 1009.2
20260508055011 32 0 0.0 0.0 0.00 0.00 0.00 89 1009.3
20260508054531 32 0 0.0 0.0 0.00 0.00 0.00 88 1009.2
20260508054012 33 0 0.0 0.0 0.00 0.00 0.00 88 1009.4
20260508053514 33 0 0.0 0.0 0.00 0.00 0.00 89 1009.3
20260508053028 33 0 0.0 0.0 0.00 0.00 0.00 88 1009.4
20260508052511 33 0 0.0 0.0 0.00 0.00 0.00 88 1009.5
20260508052015 33 0 0.0 0.0 0.00 0.00 0.00 88 1009.5
20260508051528 33 0 0.0 0.0 0.00 0.00 0.00 87 1009.6
20260508051010 34 0 0.0 0.0 0.00 0.00 0.00 87 1009.5
20260508050511 34 0 0.0 0.0 0.00 0.00 0.00 88 1009.5
20260508050031 34 0 0.0 0.0 0.00 0.00 0.00 86 1009.5
20260508045512 34 0 0.0 0.0 0.00 0.00 0.00 85 1009.5
20260508045011 34 0 0.0 0.0 0.00 0.00 0.00 84 1009.5
20260508044534 35 0 0.0 0.0 0.00 0.00 0.00 84 1009.6
20260508044008 35 0 0.0 0.0 0.00 0.00 0.00 84 1009.6
20260508043514 35 0 0.0 0.0 0.00 0.00 0.00 83 1009.7
20260508043031 35 0 0.0 0.0 0.00 0.00 0.00 81 1009.7
20260508042511 35 0 0.0 0.0 0.00 0.00 0.00 81 1009.7
20260508042012 35 0 0.0 0.0 0.00 0.00 0.00 80 1009.8
20260508041530 35 0 0.0 0.0 0.00 0.00 0.00 79 1009.8
20260508041011 36 0 0.0 0.0 0.00 0.00 0.00 79 1009.7
20260508040516 37 0 0.0 0.0 0.00 0.00 0.00 81 1009.7
20260508040031 37 0 0.0 0.0 0.00 0.00 0.00 81 1009.8
20260508035509 37 0 0.0 0.0 0.00 0.00 0.00 80 1009.7
20260508035015 37 0 0.0 0.0 0.00 0.00 0.00 80 1009.7
20260508034530 37 0 0.0 0.0 0.00 0.00 0.00 80 1009.7
20260508034010 38 0 0.0 0.0 0.00 0.00 0.00 80 1009.7
20260508033518 38 0 0.0 0.0 0.00 0.00 0.00 80 1009.7
20260508033027 38 0 0.0 0.0 0.00 0.00 0.00 77 1009.7
20260508032512 38 0 0.0 0.0 0.00 0.00 0.00 77 1009.7
20260508032017 38 0 0.0 0.0 0.00 0.00 0.00 76 1009.6
20260508031531 38 0 0.0 0.0 0.00 0.00 0.00 73 1009.8
20260508031011 38 0 0.0 0.0 0.00 0.00 0.00 72 1009.7
20260508030515 39 0 0.0 0.0 0.00 0.00 0.00 73 1009.7
20260508030030 39 0 0.0 0.0 0.00 0.00 0.00 75 1009.8
20260508025511 39 0 0.0 0.0 0.00 0.00 0.00 76 1009.7
20260508025015 40 0 0.0 0.0 0.00 0.00 0.00 75 1009.7
20260508024537 40 0 0.0 0.0 0.00 0.00 0.00 74 1009.7
20260508024010 40 0 0.0 0.0 0.00 0.00 0.00 73 1009.7
20260508023513 40 0 0.0 0.0 0.00 0.00 0.00 71 1009.7
20260508023029 40 0 0.0 0.0 0.00 0.00 0.00 68 1009.7
20260508022514 41 0 0.0 0.0 0.00 0.00 0.00 63 1009.7
20260508022016 41 0 0.0 0.0 0.00 0.00 0.00 62 1009.7
20260508021533 41 0 0.0 0.0 0.00 0.00 0.00 63 1009.8
20260508021016 41 0 0.0 0.0 0.00 0.00 0.00 64 1009.7
20260508020513 42 0 0.0 0.0 0.00 0.00 0.00 64 1009.7
20260508020029 42 0 0.0 0.0 0.00 0.00 0.00 65 1009.7
20260508015510 43 0 0.0 0.0 0.00 0.00 0.00 64 1009.6
20260508015014 43 0 0.0 0.0 0.00 0.00 0.00 61 1009.5
20260508014530 43 0 0.0 0.0 0.00 0.00 0.00 59 1009.5
20260508014011 44 0 0.0 0.0 0.00 0.00 0.00 56 1009.4
20260508013517 44 0 0.0 0.0 0.00 0.00 0.00 56 1009.4
20260508013040 44 0 0.0 0.9 0.00 0.00 0.00 55 1009.5
20260508012508 44 0 0.0 0.9 0.00 0.00 0.00 55 1009.5
20260508012011 45 321 0.0 0.0 0.00 0.00 0.00 56 1009.4
20260508011533 45 0 0.0 0.0 0.00 0.00 0.00 55 1009.4
20260508011009 45 0 0.0 0.9 0.00 0.00 0.00 55 1009.5
20260508010512 46 0 0.0 0.9 0.00 0.00 0.00 54 1009.3
20260508010033 46 0 0.0 2.6 0.00 0.00 0.00 54 1009.4
20260508005513 46 0 0.0 2.6 0.00 0.00 0.00 54 1009.4
20260508005017 46 0 0.0 1.7 0.00 0.00 0.00 53 1009.4
20260508004536 47 321 0.0 1.7 0.00 0.00 0.00 53 1009.3
20260508004013 47 0 0.0 1.7 0.00 0.00 0.00 52 1009.3
20260508003515 47 0 0.0 2.6 0.00 0.00 0.00 53 1009.3
20260508003032 48 321 0.0 3.5 0.00 0.00 0.00 52 1009.3
20260508002511 48 0 0.9 5.2 0.00 0.00 0.00 51 1009.3
20260508002013 48 256 1.7 5.2 0.00 0.00 0.00 53 1009.3
20260508001530 48 0 0.9 5.2 0.00 0.00 0.00 51 1009.3
20260508001009 47 272 1.7 5.2 0.00 0.00 0.00 52 1009.3
20260508000513 47 284 0.9 3.5 0.00 0.00 0.00 53 1009.3
20260508000032 47 265 0.9 3.5 0.00 0.00 0.00 54 1009.3
20260507235507 47 269 0.9 2.6 0.00 0.00 0.00 54 1009.3
20260507235008 47 267 0.9 2.6 0.00 0.00 0.00 54 1009.3
20260507234528 47 0 0.0 6.1 0.00 0.00 0.00 55 1009.3
20260507234008 47 269 0.9 6.1 0.00 0.00 0.00 54 1009.3
20260507233510 47 266 2.6 6.1 0.00 0.00 0.00 52 1009.3
20260507233036 48 236 2.6 7.0 0.00 0.00 0.00 52 1009.4
20260507232511 47 278 2.6 8.7 0.00 0.00 0.00 54 1009.5
20260507232017 47 228 3.5 8.7 0.00 0.00 0.00 55 1009.5
20260507231529 47 284 2.6 12.2 0.00 0.00 0.00 54 1009.6
20260507231016 48 272 6.1 12.2 0.00 0.00 0.00 51 1009.7
20260507230510 49 336 4.3 10.4 0.00 0.00 0.00 49 1009.4
20260507230030 49 284 1.7 7.8 0.00 0.00 0.00 45 1009.2
20260507225510 50 270 2.6 7.8 0.00 0.00 0.00 46 1009.1
20260507225011 50 257 0.9 3.5 0.00 0.00 0.00 46 1009.1
20260507224534 49 313 0.9 3.5 0.00 0.00 0.00 45 1009.1
20260507224007 49 301 0.9 8.7 0.00 0.00 0.00 47 1009.1
20260507223507 49 289 3.5 8.7 0.00 0.00 0.00 44 1009.2
20260507223031 50 260 0.9 7.8 0.00 0.00 0.00 46 1009.2
20260507222511 50 267 1.7 9.6 0.00 0.00 0.00 44 1009.2
20260507222011 50 286 2.6 9.6 0.00 0.00 0.00 44 1009.2
20260507221528 49 249 4.3 9.6 0.00 0.00 0.00 43 1009.4
20260507221012 49 266 2.6 7.0 0.00 0.00 0.00 43 1009.2
20260507220510 50 281 1.7 7.8 0.00 0.00 0.00 42 1009.2
20260507220029 50 259 2.6 7.8 0.00 0.00 0.00 44 1009.2
20260507215509 50 252 1.7 8.7 0.00 0.00 0.00 45 1009.2
20260507215013 49 240 3.5 8.7 0.00 0.00 0.00 42 1009.1
20260507214531 50 261 0.9 8.7 0.00 0.00 0.00 44 1009.2
20260507214013 50 324 2.6 8.7 0.00 0.00 0.00 43 1009.3
20260507213516 50 281 4.3 8.7 0.00 0.00 0.00 42 1009.2
20260507213032 49 275 2.6 7.8 0.00 0.00 0.00 42 1009.2
20260507212510 49 284 1.7 12.2 0.00 0.00 0.00 46 1009.3
20260507212012 49 230 1.7 12.2 0.00 0.00 0.00 44 1009.3
20260507211532 49 223 4.3 11.3 0.00 0.00 0.00 45 1009.5
20260507211008 49 263 3.5 11.3 0.00 0.00 0.00 44 1009.4
20260507210509 49 262 5.2 13.0 0.00 0.00 0.00 45 1009.3
20260507210047 49 229 4.3 13.0 0.00 0.00 0.00 42 1009.3
20260507205508 50 280 3.5 8.7 0.00 0.00 0.00 39 1009.2
20260507205011 50 221 3.5 8.7 0.00 0.00 0.00 42 1009.3
20260507204530 50 251 3.5 8.7 0.00 0.00 0.00 38 1009.3
20260507204008 51 252 1.7 9.6 0.00 0.00 0.00 38 1009.2
20260507203512 51 259 3.5 9.6 0.00 0.00 0.00 40 1009.4
20260507203030 51 281 4.3 8.7 0.00 0.00 0.00 39 1009.3
20260507202511 50 259 3.5 8.7 0.00 0.00 0.00 42 1009.4
20260507202013 50 303 2.6 6.1 0.00 0.00 0.00 42 1009.3
20260507201529 50 286 0.9 7.0 0.00 0.00 0.00 43 1009.5
20260507201009 50 290 2.6 7.8 0.00 0.00 0.00 41 1009.6
20260507200512 49 257 1.7 7.8 0.00 0.00 0.00 43 1009.7
20260507200036 49 277 3.5 10.4 0.00 0.00 0.00 40 1009.7
20260507195512 49 254 1.7 10.4 0.00 0.00 0.00 42 1009.8
20260507195010 49 275 2.6 10.4 0.00 0.00 0.00 42 1009.9
20260507194547 48 259 2.6 8.7 0.00 0.00 0.00 42 1010.0
20260507194010 49 233 3.5 8.7 0.00 0.00 0.00 40 1010.0
20260507193510 49 244 4.3 8.7 0.00 0.00 0.00 38 1010.0
20260507193033 49 267 1.7 5.2 0.00 0.00 0.00 40 1009.9
20260507192510 50 302 0.9 7.8 0.00 0.00 0.00 40 1010.1
20260507192011 49 347 2.6 7.8 0.00 0.00 0.00 40 1010.1
20260507191530 49 229 1.7 12.2 0.00 0.00 0.00 42 1010.0
20260507191008 49 281 4.3 12.2 0.00 0.00 0.00 42 1010.0
20260507190510 49 257 1.7 12.2 0.00 0.00 0.00 43 1010.0
20260507190030 49 288 1.7 12.2 0.00 0.00 0.00 41 1010.0
20260507185509 50 193 4.3 9.6 0.00 0.00 0.00 37 1010.1
20260507185015 50 261 2.6 6.1 0.00 0.00 0.00 40 1010.2
20260507184531 49 247 1.7 7.8 0.00 0.00 0.00 40 1010.1
20260507184010 49 232 1.7 7.8 0.00 0.00 0.00 44 1010.2
20260507183514 48 306 3.5 7.8 0.00 0.00 0.00 42 1010.4
20260507183035 48 288 2.6 9.6 0.00 0.00 0.00 41 1010.3
20260507182510 48 254 1.7 9.6 0.00 0.00 0.00 41 1010.3
20260507182016 49 296 3.5 8.7 0.00 0.00 0.00 39 1010.3
20260507181529 50 0 0.9 8.7 0.00 0.00 0.00 37 1010.4
20260507181015 50 236 3.5 10.4 0.00 0.00 0.00 41 1010.5
20260507180511 49 280 3.5 10.4 0.00 0.00 0.00 43 1010.5
20260507180031 48 287 4.3 10.4 0.00 0.00 0.00 42 1010.6
20260507175507 48 290 2.6 7.8 0.00 0.00 0.00 41 1010.7
20260507175009 48 271 2.6 6.1 0.00 0.00 0.00 41 1010.6
20260507174536 48 230 0.9 7.0 0.00 0.00 0.00 44 1010.7
20260507174009 48 225 1.7 13.0 0.00 0.00 0.00 44 1010.8
20260507173509 47 259 3.5 13.0 0.00 0.00 0.00 44 1010.9
20260507173036 47 273 2.6 7.8 0.00 0.00 0.00 44 1011.0
20260507172509 47 215 0.9 6.1 0.00 0.00 0.00 46 1010.9
20260507172008 47 206 1.7 6.1 0.00 0.00 0.00 42 1010.9
20260507171532 47 0 2.6 6.1 0.00 0.00 0.00 44 1011.0
20260507171011 47 266 1.7 6.1 0.00 0.00 0.00 46 1011.1
20260507170510 46 269 2.6 7.8 0.00 0.00 0.00 47 1011.0
20260507170035 46 273 3.5 7.8 0.00 0.00 0.00 45 1011.1
20260507165510 46 278 2.6 6.1 0.00 0.00 0.00 44 1011.2
20260507165011 45 0 0.9 7.0 0.00 0.00 0.00 48 1011.3
20260507164531 45 0 2.6 7.0 0.00 0.00 0.00 46 1011.3
20260507164013 45 289 1.7 6.1 0.00 0.00 0.00 48 1011.3
20260507163513 45 230 1.7 7.0 0.00 0.00 0.00 49 1011.3
20260507163031 45 0 1.7 7.8 0.00 0.00 0.00 45 1011.3
20260507162509 45 229 2.6 7.8 0.00 0.00 0.00 47 1011.4
20260507162014 45 263 2.6 7.8 0.00 0.00 0.00 46 1011.4
20260507161534 45 280 1.7 7.0 0.00 0.00 0.00 48 1011.4
20260507161009 45 281 2.6 6.1 0.00 0.00 0.00 48 1011.4
20260507160509 45 263 1.7 8.7 0.00 0.00 0.00 49 1011.6
20260507160030 45 261 1.7 8.7 0.00 0.00 0.00 49 1011.5
20260507155513 45 279 2.6 8.7 0.00 0.00 0.00 48 1011.5
20260507155015 45 229 2.6 8.7 0.00 0.00 0.00 48 1011.5
20260507154535 45 263 1.7 7.0 0.00 0.00 0.00 48 1011.6
20260507154012 45 250 0.9 5.2 0.00 0.00 0.00 49 1011.6
20260507153512 46 259 2.6 5.2 0.00 0.00 0.00 47 1011.5
20260507153039 46 267 0.9 7.0 0.00 0.00 0.00 50 1011.6
20260507152512 45 0 0.0 7.0 0.00 0.00 0.00 50 1011.5
20260507152011 45 217 0.9 7.0 0.00 0.00 0.00 51 1011.4
20260507151532 44 0 1.7 7.0 0.00 0.00 0.00 48 1011.6
20260507151011 45 262 1.7 7.0 0.00 0.00 0.00 51 1011.7
20260507150510 45 309 1.7 7.8 0.00 0.00 0.00 49 1011.7
20260507150031 44 254 1.7 7.8 0.00 0.00 0.00 55 1011.8
20260507145509 44 268 2.6 7.8 0.00 0.00 0.00 53 1011.8
20260507145011 45 0 0.9 3.5 0.00 0.00 0.00 54 1011.7
20260507144530 45 218 0.9 5.2 0.00 0.00 0.00 53 1011.8
20260507144008 44 279 0.9 5.2 0.00 0.00 0.00 55 1011.9
20260507143513 44 254 0.9 7.8 0.00 0.00 0.00 54 1012.0
20260507143028 44 265 0.9 7.8 0.00 0.00 0.00 54 1011.8
20260507142512 43 225 2.6 7.8 0.00 0.00 0.00 53 1011.9
20260507142010 43 232 1.7 7.8 0.00 0.00 0.00 57 1012.0
20260507141530 43 230 0.9 7.8 0.00 0.00 0.00 58 1012.0
20260507141011 43 256 3.5 7.8 0.00 0.00 0.00 55 1012.2
20260507140511 42 273 2.6 8.7 0.00 0.00 0.00 59 1012.2
20260507140032 42 244 2.6 8.7 0.00 0.00 0.00 57 1012.2
20260507135509 42 245 1.7 7.8 0.00 0.00 0.00 59 1012.2
20260507135016 42 236 1.7 7.8 0.00 0.00 0.00 59 1012.2
20260507134531 42 263 1.7 7.8 0.00 0.00 0.00 58 1012.2
20260507134010 42 0 1.7 7.8 0.00 0.00 0.00 58 1012.2
20260507133513 42 0 0.9 7.0 0.00 0.00 0.00 62 1012.2
20260507133034 41 282 1.7 7.0 0.00 0.00 0.00 61 1012.3
20260507132513 41 0 1.7 7.0 0.00 0.00 0.00 63 1012.3
20260507132011 41 257 2.6 7.0 0.00 0.00 0.00 63 1012.4
20260507131530 40 220 1.7 7.0 0.00 0.00 0.00 64 1012.3
20260507131012 40 284 2.6 5.2 0.00 0.00 0.00 64 1012.3
20260507130515 40 229 1.7 6.1 0.00 0.00 0.00 67 1012.4
20260507130039 39 257 1.7 6.1 0.00 0.00 0.00 67 1012.4
20260507125513 39 0 0.9 6.1 0.00 0.00 0.00 68 1012.5
20260507125012 38 350 0.9 6.1 0.00 0.00 0.00 68 1012.5
20260507124531 38 250 2.6 6.1 0.00 0.00 0.00 69 1012.4
20260507124011 38 274 0.9 5.2 0.00 0.00 0.00 71 1012.5
20260507123515 37 272 0.9 5.2 0.00 0.00 0.00 71 1012.4
20260507123030 37 272 1.7 5.2 0.00 0.00 0.00 71 1012.4
20260507122510 37 223 1.7 5.2 0.00 0.00 0.00 73 1012.5
20260507122014 36 224 1.7 5.2 0.00 0.00 0.00 73 1012.5
20260507121531 36 215 0.9 4.3 0.00 0.00 0.00 73 1012.4
20260507121012 36 205 0.9 2.6 0.00 0.00 0.00 76 1012.4
20260507120512 35 269 0.9 2.6 0.00 0.00 0.00 74 1012.4
20260507120030 35 269 0.0 2.6 0.00 0.00 0.00 74 1012.4
20260507115509 35 269 0.0 2.6 0.00 0.00 0.00 74 1012.4
20260507115016 35 269 0.0 3.5 0.00 0.00 0.00 73 1012.4
20260507114536 35 0 0.0 3.5 0.00 0.00 0.00 74 1012.3
20260507114018 36 269 0.0 3.5 0.00 0.00 0.00 73 1012.3
20260507113510 36 0 0.9 3.5 0.00 0.00 0.00 73 1012.3
20260507113030 36 0 0.9 2.6 0.00 0.00 0.00 73 1012.3
20260507112514 36 0 0.0 3.5 0.00 0.00 0.00 74 1012.2
20260507112013 36 223 0.9 4.3 0.00 0.00 0.00 73 1012.2
20260507111532 36 223 1.7 4.3 0.00 0.00 0.00 74 1012.2
20260507111010 36 221 0.9 4.3 0.00 0.00 0.00 74 1012.2
20260507110510 36 221 0.9 4.3 0.00 0.00 0.00 77 1012.2
20260507110030 35 221 0.9 4.3 0.00 0.00 0.00 74 1012.2
20260507105511 35 0 0.9 2.6 0.00 0.00 0.00 73 1012.3
20260507105012 35 285 0.9 2.6 0.00 0.00 0.00 73 1012.2
20260507104531 35 285 0.9 2.6 0.00 0.00 0.00 73 1012.2
20260507104011 35 285 0.9 2.6 0.00 0.00 0.00 73 1012.2
20260507103510 35 285 0.9 2.6 0.00 0.00 0.00 73 1012.2
20260507103033 35 0 0.9 2.6 0.00 0.00 0.00 73 1012.1
20260507102515 35 285 0.9 2.6 0.00 0.00 0.00 73 1012.1
20260507102015 35 0 0.0 2.6 0.00 0.00 0.00 73 1012.1
20260507101532 35 285 0.0 3.5 0.00 0.00 0.00 73 1012.1
20260507101009 35 285 0.9 3.5 0.00 0.00 0.00 73 1012.0
20260507100509 35 0 0.0 1.7 0.00 0.00 0.00 73 1012.1
20260507100034 35 285 0.0 2.6 0.00 0.00 0.00 72 1012.1
20260507095510 35 0 0.0 2.6 0.00 0.00 0.00 72 1012.1
20260507095010 35 0 0.0 2.6 0.00 0.00 0.00 72 1012.1
20260507094529 35 285 0.0 1.7 0.00 0.00 0.00 72 1012.1
20260507094010 35 0 0.0 1.7 0.00 0.00 0.00 72 1012.2
20260507093516 35 0 0.0 1.7 0.00 0.00 0.00 72 1012.2
20260507093029 35 285 0.0 1.7 0.00 0.00 0.00 72 1012.1
20260507092518 35 0 0.0 1.7 0.00 0.00 0.00 72 1012.1
20260507092013 35 0 0.0 1.7 0.00 0.00 0.00 72 1012.1
20260507091529 35 285 0.0 1.7 0.00 0.00 0.00 72 1012.1